Time,TemperatureF,DewpointF,PressureIn,WindDirection,WindDirectionDegrees,WindSpeedMPH,WindSpeedGustMPH,Humidity,HourlyPrecipIn,Conditions,Clouds,dailyrainin,SoftwareType,DateUTC
2013-01-15 00:01:00,33.4,25.9,30.29,ENE,68,0.0,0.0,74,0.00,,,0.00,WUHU216HW,2013-01-15 05:01:00,
2013-01-15 00:07:00,33.4,25.9,30.31,ENE,68,0.0,0.0,74,0.00,,,0.00,WUHU216HW,2013-01-15 05:07:00,
2013-01-15 00:12:00,33.2,26.1,30.31,ENE,68,0.0,0.0,75,0.00,,,0.00,WUHU216HW,2013-01-15 05:12:00,
2013-01-15 00:18:00,33.2,26.1,30.30,ENE,68,0.0,0.0,75,0.00,,,0.00,WUHU216HW,2013-01-15 05:18:00,
2013-01-15 00:23:00,33.0,25.9,30.30,ENE,68,0.0,0.0,75,0.00,,,0.00,WUHU216HW,2013-01-15 05:23:00,
2013-01-15 00:29:00,32.9,25.7,30.31,ENE,68,0.0,0.0,75,0.00,,,0.00,WUHU216HW,2013-01-15 05:29:00,
2013-01-15 00:34:00,32.7,25.6,30.30,ENE,68,0.0,0.0,75,0.00,,,0.00,WUHU216HW,2013-01-15 05:34:00,
2013-01-15 00:40:00,32.5,25.4,30.30,ENE,68,0.0,0.0,75,0.00,,,0.00,WUHU216HW,2013-01-15 05:40:00,
2013-01-15 00:46:00,32.5,25.4,30.31,ENE,68,0.0,0.0,75,0.00,,,0.00,WUHU216HW,2013-01-15 05:46:00,
2013-01-15 00:51:00,32.3,25.6,30.30,ENE,68,0.0,0.0,76,0.00,,,0.00,WUHU216HW,2013-01-15 05:51:00,
2013-01-15 00:56:00,32.3,25.6,30.30,ENE,68,0.0,0.0,76,0.00,,,0.00,WUHU216HW,2013-01-15 05:56:00,
2013-01-15 01:02:00,32.1,25.4,30.30,ENE,68,0.0,0.0,76,0.00,,,0.00,WUHU216HW,2013-01-15 06:02:00,
2013-01-15 01:07:00,32.1,25.4,30.30,ENE,68,0.0,0.0,76,0.00,,,0.00,WUHU216HW,2013-01-15 06:07:00,
2013-01-15 01:13:00,31.8,25.1,30.30,ENE,68,0.0,0.0,76,0.00,,,0.00,WUHU216HW,2013-01-15 06:13:00,
2013-01-15 01:19:00,31.8,25.1,30.30,ENE,68,0.0,0.0,76,0.00,,,0.00,WUHU216HW,2013-01-15 06:19:00,
2013-01-15 01:25:00,31.6,24.9,30.29,ENE,68,0.0,0.0,76,0.00,,,0.00,WUHU216HW,2013-01-15 06:25:00,
2013-01-15 01:30:00,31.6,24.9,30.28,ENE,68,0.0,0.0,76,0.00,,,0.00,WUHU216HW,2013-01-15 06:30:00,
2013-01-15 01:36:00,31.4,25.0,30.28,ENE,68,0.0,0.0,77,0.00,,,0.00,WUHU216HW,2013-01-15 06:36:00,
2013-01-15 01:41:00,31.2,24.9,30.29,ENE,68,0.0,0.0,77,0.00,,,0.00,WUHU216HW,2013-01-15 06:41:00,
2013-01-15 01:46:00,31.1,24.7,30.29,ENE,68,0.0,0.0,77,0.00,,,0.00,WUHU216HW,2013-01-15 06:46:00,
2013-01-15 01:51:00,31.1,24.7,30.28,ENE,68,0.0,0.0,77,0.00,,,0.00,WUHU216HW,2013-01-15 06:51:00,
2013-01-15 01:57:00,30.9,24.5,30.29,ENE,68,0.0,0.0,77,0.00,,,0.00,WUHU216HW,2013-01-15 06:57:00,
2013-01-15 02:02:00,30.7,24.3,30.29,ENE,68,0.0,0.0,77,0.00,,,0.00,WUHU216HW,2013-01-15 07:02:00,
2013-01-15 02:08:00,30.7,24.6,30.29,ENE,68,0.0,0.0,78,0.00,,,0.00,WUHU216HW,2013-01-15 07:08:00,
2013-01-15 02:13:00,30.7,24.6,30.29,ENE,68,0.0,0.0,78,0.00,,,0.00,WUHU216HW,2013-01-15 07:13:00,
2013-01-15 02:19:00,30.5,24.5,30.29,ENE,68,0.0,0.0,78,0.00,,,0.00,WUHU216HW,2013-01-15 07:19:00,
2013-01-15 02:30:00,30.3,24.3,30.30,ENE,68,0.0,0.0,78,0.00,,,0.00,WUHU216HW,2013-01-15 07:30:00,
2013-01-15 02:41:00,30.2,24.1,30.31,NE,45,0.0,0.0,78,0.00,,,0.00,WUHU216HW,2013-01-15 07:41:00,
2013-01-15 02:51:00,30.0,23.9,30.31,NE,45,0.0,0.0,78,0.00,,,0.00,WUHU216HW,2013-01-15 07:51:00,
2013-01-15 02:57:00,30.0,24.2,30.31,NE,45,0.0,0.0,79,0.00,,,0.00,WUHU216HW,2013-01-15 07:57:00,
2013-01-15 03:03:00,30.0,24.2,30.31,NNE,23,0.0,0.0,79,0.00,,,0.00,WUHU216HW,2013-01-15 08:03:00,
2013-01-15 03:09:00,30.0,24.2,30.31,NNE,23,0.0,0.0,79,0.00,,,0.00,WUHU216HW,2013-01-15 08:09:00,
2013-01-15 03:15:00,30.0,24.2,30.31,NNE,23,0.0,0.0,79,0.00,,,0.00,WUHU216HW,2013-01-15 08:15:00,
2013-01-15 18:03:00,33.6,26.1,30.25,North,0,0.0,0.0,74,0.00,,,0.00,WUHU216HW,2013-01-15 23:03:00,
2013-01-15 18:08:00,33.6,26.1,30.26,NNE,23,0.0,0.0,74,0.00,,,0.00,WUHU216HW,2013-01-15 23:08:00,
2013-01-15 18:14:00,33.6,26.1,30.26,North,0,0.0,0.0,74,0.00,,,0.00,WUHU216HW,2013-01-15 23:14:00,
2013-01-15 19:37:00,33.6,26.4,30.23,NNE,23,0.0,0.0,75,0.00,,,0.00,WUHU216HW,2013-01-16 00:37:00,
2013-01-15 19:47:00,33.6,26.4,30.23,NNE,23,0.0,0.0,75,0.00,,,0.00,WUHU216HW,2013-01-16 00:47:00,
2013-01-15 19:53:00,33.6,26.4,30.23,NNE,23,0.0,0.0,75,0.00,,,0.00,WUHU216HW,2013-01-16 00:53:00,
2013-01-15 19:58:00,33.6,26.4,30.23,NE,45,0.0,0.0,75,0.00,,,0.00,WUHU216HW,2013-01-16 00:58:00,
2013-01-15 20:08:00,33.6,26.4,30.23,NE,45,0.0,0.0,75,0.00,,,0.00,WUHU216HW,2013-01-16 01:08:00,
2013-01-15 20:14:00,33.6,26.4,30.22,NE,45,0.0,0.0,75,0.00,,,0.00,WUHU216HW,2013-01-16 01:14:00,
2013-01-15 20:20:00,33.6,26.4,30.21,NE,45,0.0,0.0,75,0.00,,,0.00,WUHU216HW,2013-01-16 01:20:00,
2013-01-15 20:26:00,33.6,26.4,30.20,NE,45,0.0,0.0,75,0.00,,,0.00,WUHU216HW,2013-01-16 01:26:00,
2013-01-15 20:31:00,33.6,26.4,30.19,NE,45,0.0,0.0,75,0.00,,,0.00,WUHU216HW,2013-01-16 01:31:00,
2013-01-15 20:37:00,33.4,26.2,30.18,NE,45,0.0,0.0,75,0.00,,,0.00,WUHU216HW,2013-01-16 01:37:00,
2013-01-15 20:42:00,33.4,26.6,30.17,SE,135,0.0,0.0,76,0.00,,,0.00,WUHU216HW,2013-01-16 01:42:00,
2013-01-15 20:48:00,33.0,26.2,30.16,ESE,113,0.0,0.0,76,0.00,,,0.00,WUHU216HW,2013-01-16 01:48:00,
2013-01-15 20:53:00,33.0,26.6,30.16,SE,135,0.0,0.0,77,0.00,,,0.00,WUHU216HW,2013-01-16 01:53:00,
2013-01-15 20:58:00,32.9,26.7,30.16,SE,135,0.0,0.0,78,0.00,,,0.00,WUHU216HW,2013-01-16 01:58:00,
2013-01-15 21:04:00,32.9,26.7,30.16,ESE,113,0.0,0.0,78,0.00,,,0.00,WUHU216HW,2013-01-16 02:04:00,
2013-01-15 21:10:00,32.7,26.9,30.16,ESE,113,0.0,0.0,79,0.00,,,0.00,WUHU216HW,2013-01-16 02:10:00,
2013-01-15 21:15:00,32.7,26.9,30.16,East,90,0.0,0.0,79,0.00,,,0.00,WUHU216HW,2013-01-16 02:15:00,
2013-01-15 21:21:00,32.7,26.9,30.16,East,90,0.0,0.0,79,0.02,,,0.02,WUHU216HW,2013-01-16 02:21:00,
2013-01-15 21:26:00,32.7,27.2,30.16,East,90,0.0,0.0,80,0.02,,,0.02,WUHU216HW,2013-01-16 02:26:00,
2013-01-15 21:31:00,32.7,27.2,30.16,NE,45,0.0,0.0,80,0.02,,,0.02,WUHU216HW,2013-01-16 02:31:00,
2013-01-15 21:37:00,32.7,27.5,30.16,NE,45,0.0,0.0,81,0.04,,,0.04,WUHU216HW,2013-01-16 02:37:00,
2013-01-15 21:42:00,32.7,27.8,30.16,NE,45,0.0,0.0,82,0.04,,,0.04,WUHU216HW,2013-01-16 02:42:00,
2013-01-15 21:48:00,32.7,27.8,30.15,NE,45,0.0,0.0,82,0.04,,,0.04,WUHU216HW,2013-01-16 02:48:00,
2013-01-15 21:53:00,32.7,28.1,30.15,NE,45,0.0,0.0,83,0.04,,,0.04,WUHU216HW,2013-01-16 02:53:00,
2013-01-15 21:58:00,32.7,28.1,30.15,NE,45,0.0,0.0,83,0.04,,,0.04,WUHU216HW,2013-01-16 02:58:00,
2013-01-15 22:03:00,32.7,28.4,30.14,NNE,23,0.0,0.0,84,0.06,,,0.06,WUHU216HW,2013-01-16 03:03:00,
2013-01-15 22:08:00,32.7,28.4,30.13,NNE,23,0.0,0.0,84,0.06,,,0.06,WUHU216HW,2013-01-16 03:08:00,
2013-01-15 22:13:00,32.7,28.4,30.13,NNE,23,0.0,0.0,84,0.06,,,0.06,WUHU216HW,2013-01-16 03:13:00,
2013-01-15 22:19:00,32.7,28.4,30.13,NNE,23,0.0,2.9,84,0.04,,,0.06,WUHU216HW,2013-01-16 03:19:00,
2013-01-15 22:25:00,32.7,28.4,30.13,NNE,23,0.0,2.9,84,0.04,,,0.06,WUHU216HW,2013-01-16 03:25:00,
2013-01-15 22:30:00,32.7,28.4,30.13,NNE,23,0.0,0.0,84,0.06,,,0.08,WUHU216HW,2013-01-16 03:30:00,
2013-01-15 22:36:00,32.7,28.2,30.12,NNE,23,0.0,0.0,85,0.04,,,0.08,WUHU216HW,2013-01-16 03:36:00,
2013-01-15 22:42:00,32.5,28.5,30.12,NNE,23,0.0,0.0,85,0.04,,,0.08,WUHU216HW,2013-01-16 03:42:00,
2013-01-15 22:47:00,32.7,28.6,30.12,NNE,23,0.0,0.0,85,0.04,,,0.08,WUHU216HW,2013-01-16 03:47:00,
2013-01-15 22:53:00,32.7,28.6,30.12,NNE,23,0.0,0.0,85,0.04,,,0.08,WUHU216HW,2013-01-16 03:53:00,
2013-01-15 22:58:00,32.7,28.6,30.12,NNE,23,0.0,0.0,85,0.04,,,0.08,WUHU216HW,2013-01-16 03:58:00,
2013-01-15 23:03:00,32.7,28.6,30.12,NNE,23,0.0,0.0,85,0.04,,,0.10,WUHU216HW,2013-01-16 04:03:00,
2013-01-15 23:08:00,32.7,28.6,30.11,NNE,23,0.0,0.0,85,0.04,,,0.10,WUHU216HW,2013-01-16 04:08:00,
2013-01-15 23:13:00,32.5,28.8,30.11,NNE,23,0.0,0.0,86,0.04,,,0.10,WUHU216HW,2013-01-16 04:13:00,
2013-01-15 23:19:00,32.5,28.8,30.11,NNE,23,0.0,0.0,86,0.04,,,0.10,WUHU216HW,2013-01-16 04:19:00,
2013-01-15 23:24:00,32.5,28.8,30.10,NNE,23,0.0,0.0,86,0.04,,,0.10,WUHU216HW,2013-01-16 04:24:00,
2013-01-15 23:30:00,32.5,28.8,30.10,NNE,23,0.0,0.0,86,0.04,,,0.12,WUHU216HW,2013-01-16 04:30:00,
2013-01-15 23:36:00,32.5,28.8,30.10,NNE,23,0.0,0.0,86,0.04,,,0.12,WUHU216HW,2013-01-16 04:36:00,
2013-01-15 23:41:00,32.5,28.8,30.09,NNE,23,0.0,0.0,86,0.04,,,0.12,WUHU216HW,2013-01-16 04:41:00,
2013-01-15 23:47:00,32.5,29.1,30.09,NNE,23,0.0,0.0,87,0.04,,,0.12,WUHU216HW,2013-01-16 04:47:00,
2013-01-15 23:53:00,32.7,29.2,30.09,NNE,23,0.0,0.0,87,0.06,,,0.14,WUHU216HW,2013-01-16 04:53:00,
2013-01-15 23:58:00,32.7,29.2,30.09,NNE,23,0.0,0.0,87,0.06,,,0.14,WUHU216HW,2013-01-16 04:58:00,